#timestamp,LO_Frequency,Hit,StdDev 
1516932015.9,286047004.5,N
1516932035.7,286047004.6,N
1516932055.5,286046998.9,N
1516932075.4,286047001.2,N
1516932095.2,286047001.6,N
1516932115.1,286047003.3,N
1516932116.0,286047003.3,N
1516932135.8,286047008.5,Y
1516932155.6,286047004.7,P
1516932175.5,286047007.0,P
1516932195.3,286047004.8,N
1516932215.2,286047003.1,N
1516932235.9,286047006.9,Y
1516932255.7,286047001.9,P
1516932275.6,286046999.9,N
1516932295.4,286047002.9,N
1516932315.2,286047003.5,N
1516932335.1,286047002.0,N
1516932336.0,286047002.0,N
1516932355.8,286046999.1,N
1516932375.7,286046996.4,N
1516932395.5,286046995.6,N
1516932415.3,286046995.5,N
1516932435.2,286046995.3,N
1516932455.0,286046994.8,N
1516932455.9,286046994.8,N
1516932475.8,286046990.4,N
1516932495.6,286046990.1,N
1516932515.4,286046994.9,N
1516932535.3,286046998.8,N
1516932555.1,286046997.6,N
1516932575.8,286046999.9,N
1516932595.7,286046999.5,N
1516932615.5,286046994.9,N
1516932635.4,286046997.7,N
1516932655.2,286046999.3,N
1516932675.0,286046998.8,N
1516932675.9,286046998.8,N
1516932695.8,286046998.5,N
1516932715.6,286046998.6,N
1516932735.4,286047000.3,N
1516932755.3,286046999.7,N
1516932775.1,286047000.3,N
1516932795.9,286046998.6,N
1516932815.7,286046999.5,N
1516932835.5,286046999.4,N
1516932855.4,286046997.7,N
1516932875.2,286046999.1,N
1516932895.1,286046998.5,N
1516932896.0,286046998.5,N
1516932915.8,286046996.5,N
1516932935.6,286047000.9,N
1516932955.5,286046999.1,N
1516932975.3,286046998.0,N
1516932995.1,286046998.7,N
1516933015.9,286046999.3,N
1516933035.7,286046999.8,N
1516933055.6,286046996.9,N
1516933075.4,286046995.6,Y
1516933095.2,286047001.5,P
1516933115.1,286047003.3,N
1516933116.0,286047003.3,N
1516933135.8,286047001.6,N
1516933155.7,286047003.1,N
1516933175.5,286046999.8,N
1516933195.3,286047000.2,N
1516933215.2,286046998.1,N
1516933235.0,286046998.9,N
1516933235.9,286046998.9,N
1516933255.8,286046999.0,N
1516933275.6,286046999.8,N
1516933295.4,286046995.9,N
1516933315.3,286046995.7,N
1516933335.1,286046995.5,N
1516933355.8,286046995.4,N
1516933375.7,286046996.6,N
1516933395.5,286046995.2,N
1516933415.4,286046999.0,N
1516933435.2,286047001.0,N
1516933455.0,286046998.1,N
1516933455.9,286046998.1,N
1516933475.8,286046996.8,N
1516933495.6,286047000.1,N
1516933515.4,286047000.1,N
1516933535.3,286046999.0,N
1516933555.1,286046995.1,N
1516933575.9,286046996.3,N
1516933595.7,286046996.3,N
1516933615.5,286046994.4,N
1516933635.4,286046994.7,N
1516933655.2,286046990.1,Y
1516933675.1,286046995.6,P
1516933676.0,286046995.6,P
1516933695.8,286047000.2,N
1516933715.6,286047000.6,N
1516933735.5,286046999.8,N
1516933755.3,286046999.9,N
1516933775.1,286047007.0,Y
1516933795.9,286047009.2,P
1516933815.7,286047006.4,N
1516933835.6,286047009.1,N
1516933855.4,286047007.8,N
1516933875.2,286047008.4,N
1516933895.1,286047004.3,N
1516933896.0,286047004.3,N
1516933915.8,286047002.2,N
1516933935.7,286047007.2,N
1516933955.5,286047007.6,N
1516933975.3,286047011.7,Y
1516933995.2,286047002.0,P
1516934015.0,286047001.2,N
1516934015.9,286047001.2,N
1516934035.7,286047000.5,N
1516934055.6,286046993.8,Y
1516934075.4,286046995.5,P
1516934095.3,286046997.9,N
1516934115.1,286046994.9,N
1516934135.8,286046993.7,N
1516934155.7,286046995.6,N
1516934175.5,286046996.3,N
1516934195.4,286046994.1,N
1516934215.2,286046993.6,N
1516934235.0,286046994.3,N
1516934235.9,286046994.3,N
1516934255.8,286046994.1,N
1516934275.6,286046994.4,N
1516934295.5,286046992.3,Y
1516934315.3,286046998.9,P
1516934335.1,286047002.8,N
1516934355.9,286047004.7,N
1516934375.7,286047003.4,N
1516934395.5,286047001.7,N
1516934415.4,286047001.8,N
1516934435.2,286046999.4,N
1516934455.1,286046999.2,N
1516934456.0,286046999.2,N
1516934475.8,286046999.9,N
1516934495.6,286046999.9,N
1516934515.5,286047002.8,N
1516934535.3,286047002.6,N
1516934555.1,286047000.1,N
1516934575.9,286047001.6,N
1516934595.7,286047000.0,N
1516934615.6,286046998.2,N
1516934635.4,286046999.2,N
1516934655.2,286047001.2,N
1516934675.1,286047002.0,N
1516934676.0,286047002.0,N
1516934695.8,286047001.6,N
1516934715.7,286047007.0,Y
1516934735.5,286047009.2,P
1516934755.3,286047008.4,N
1516934775.2,286047007.5,N
1516934795.0,286047005.7,N
1516934795.9,286047005.7,N
1516934815.7,286047003.0,N
1516934835.6,286047003.3,N
1516934855.4,286047000.3,N
1516934875.3,286046999.7,N
1516934895.1,286047002.0,N
1516934896.0,286047002.0,N
1516934915.8,286047001.2,N
1516934935.7,286046995.0,N
1516934955.5,286046995.9,N
1516934975.3,286046997.4,N
1516934995.2,286047001.9,N
1516935015.0,286047002.0,N
1516935015.9,286047002.0,N
1516935035.8,286046997.2,N
1516935055.6,286046994.4,N
1516935075.4,286046995.7,N
1516935095.3,286046995.2,N
1516935115.1,286047000.1,N
1516935135.9,286047002.0,N
1516935155.7,286047005.0,N
1516935175.5,286047007.4,N
1516935195.4,286047001.7,N
1516935215.2,286046997.6,N
1516935235.0,286046995.3,N
1516935235.9,286046995.3,N
1516935255.8,286046995.3,N
1516935275.6,286046998.6,N
1516935295.5,286047000.7,N
1516935315.3,286047002.0,N
1516935335.1,286046999.7,N
1516935355.9,286047006.0,N
1516935375.7,286047000.9,N
1516935395.6,286046997.5,N
1516935415.4,286046995.4,N
1516935435.2,286046994.5,N
1516935455.1,286046991.9,N
1516935456.0,286046991.9,N
1516935475.8,286046991.4,N
1516935495.6,286046991.6,N
1516935515.5,286046990.3,N
1516935535.3,286046990.5,N
1516935555.2,286046991.7,N
1516935575.9,286046996.0,N
1516935595.7,286046992.5,N
